User: anonymous   Login
Location: St. Louis
(38.6270°N, 90.1994°W)
Time: 09:36:32
(UTC-05:00)
Language:

Orbcomm OXP-1 - Orbit

View from above orbital plane
View from above orbital plane
View from above satellite
View from above satellite

Ground track
Ground track

The orbit data is extracted from the following two-line orbital elements,

1 22489U 93009A   22183.50342141  .00000291  00000-0  29953-4 0  9996
2 22489  24.9642 120.2914 0040710 351.7322   8.2513 14.45137098551707
Epoch (UTC): 02 July 2022 12:04:55
Eccentricity: 0.0040710
inclination: 24.9642°
perigee height: 712 km
apogee height: 770 km
right ascension of ascending node: 120.2914°
argument of perigee: 351.7322°
revolutions per day: 14.45137098
mean anomaly at epoch: 8.2513°
orbit number at epoch: 55170

The dashed part of the orbit path shows where the satellite is in the earth's shadow,  

DLR